START_TIME,STEP,MOV.,M6,t_acc.,M7,t_acc.,M19,t_acc.,H36,t_acc.
1979-03-04 12:00:16.600 ,1,1,7.,12.0,0.,12.0,0.,12.0,14.,12.0
1979-03-04 12:00:28.600 ,1,1,1.,12.0,0.,12.0,0.,12.0,11.,12.0
1979-03-04 12:00:40.600 ,2,1,3.,12.0,0.,12.0,0.,12.0,7.,12.0
1979-03-04 12:00:52.600 ,2,1,1.,12.0,0.,12.0,0.,12.0,6.,12.0
1979-03-04 12:01:04.600 ,3,1,5.,12.0,0.,12.0,0.,12.0,8.,12.0
1979-03-04 12:01:16.600 ,3,1,3.,12.0,0.,12.0,0.,12.0,9.,12.0
1979-03-04 12:01:28.600 ,4,1,5.,12.0,0.,12.0,0.,12.0,8.,12.0
1979-03-04 12:01:40.600 ,4,1,7.,12.0,0.,12.0,0.,12.0,15.,12.0
1979-03-04 12:01:52.600 ,5,1,10.,12.0,0.,12.0,0.,12.0,17.,12.0
1979-03-04 12:02:04.600 ,5,1,6.,12.0,0.,12.0,0.,12.0,19.,12.0
1979-03-04 12:02:16.600 ,6,1,9.,12.0,0.,12.0,0.,12.0,17.,12.0
1979-03-04 12:02:28.600 ,6,1,7.,12.0,0.,12.0,0.,12.0,17.,12.0
1979-03-04 12:02:40.600 ,7,1,9.,12.0,0.,12.0,0.,12.0,33.,12.0
1979-03-04 12:02:52.600 ,7,1,0.,12.0,0.,12.0,0.,12.0,4.,12.0
1979-03-04 12:03:04.600 ,7,1,0.,12.0,0.,12.0,0.,12.0,0.,12.0
1979-03-04 12:03:16.600 ,7,1,0.,12.0,0.,12.0,0.,12.0,0.,12.0
1979-03-04 12:03:28.600 ,6,1,0.,12.0,0.,12.0,0.,12.0,0.,12.0
1979-03-04 12:03:40.600 ,6,1,10.,12.0,0.,12.0,0.,12.0,19.,12.0
1979-03-04 12:03:52.600 ,5,1,9.,12.0,0.,12.0,0.,12.0,26.,12.0
1979-03-04 12:04:04.600 ,5,1,11.,12.0,0.,12.0,0.,12.0,29.,12.0
1979-03-04 12:04:16.600 ,4,1,8.,12.0,0.,12.0,0.,12.0,31.,12.0
1979-03-04 12:04:28.600 ,4,1,6.,12.0,0.,12.0,0.,12.0,17.,12.0
1979-03-04 12:04:40.600 ,3,1,8.,12.0,0.,12.0,0.,12.0,12.,12.0
1979-03-04 12:04:52.600 ,3,1,1.,12.0,0.,12.0,0.,12.0,13.,12.0
1979-03-04 12:05:04.600 ,2,1,5.,12.0,0.,12.0,0.,12.0,8.,12.0
1979-03-04 12:05:16.600 ,2,1,4.,12.0,0.,12.0,0.,12.0,5.,12.0
1979-03-04 12:05:28.600 ,1,1,3.,12.0,0.,12.0,0.,12.0,10.,12.0
1979-03-04 12:05:40.600 ,1,1,4.,12.0,0.,12.0,0.,12.0,7.,12.0
1979-03-04 12:05:52.600 ,0,1,1.,12.0,0.,12.0,0.,12.0,9.,12.0
1979-03-04 12:06:04.600 ,0,1,7.,12.0,0.,12.0,0.,12.0,16.,12.0
1979-03-04 12:06:16.600 ,0,1,6.,12.0,0.,12.0,0.,12.0,5.,12.0
1979-03-04 12:06:28.600 ,0,1,4.,12.0,0.,12.0,0.,12.0,11.,12.0
1979-03-04 12:06:40.600 ,1,1,4.,12.0,0.,12.0,0.,12.0,8.,12.0
1979-03-04 12:06:52.600 ,1,1,3.,12.0,0.,12.0,0.,12.0,8.,12.0
1979-03-04 12:07:04.600 ,2,1,4.,12.0,0.,12.0,0.,12.0,11.,12.0
1979-03-04 12:07:16.600 ,2,1,3.,12.0,0.,12.0,0.,12.0,9.,12.0
1979-03-04 12:07:28.600 ,3,1,0.,12.0,0.,12.0,0.,12.0,5.,12.0
1979-03-04 12:07:40.600 ,3,1,4.,12.0,0.,12.0,0.,12.0,17.,12.0
1979-03-04 12:07:52.600 ,4,1,3.,12.0,0.,12.0,0.,12.0,12.,12.0
1979-03-04 12:08:04.600 ,4,1,7.,12.0,0.,12.0,0.,12.0,18.,12.0
1979-03-04 12:08:16.600 ,5,1,4.,12.0,0.,12.0,0.,12.0,17.,12.0
1979-03-04 12:08:28.600 ,5,1,10.,12.0,0.,12.0,0.,12.0,31.,12.0
1979-03-04 12:08:40.600 ,6,1,10.,12.0,0.,12.0,0.,12.0,27.,12.0
1979-03-04 12:08:52.600 ,6,1,14.,12.0,0.,12.0,0.,12.0,30.,12.0
1979-03-04 12:09:04.600 ,7,1,15.,12.0,0.,12.0,0.,12.0,31.,12.0
1979-03-04 12:09:16.600 ,7,1,2.,12.0,0.,12.0,0.,12.0,8.,12.0
1979-03-04 12:09:28.600 ,7,1,0.,12.0,0.,12.0,0.,12.0,0.,12.0
1979-03-04 12:09:40.600 ,7,1,0.,12.0,0.,12.0,0.,12.0,0.,12.0
1979-03-04 12:09:52.600 ,6,1,0.,12.0,0.,12.0,0.,12.0,0.,12.0
1979-03-04 12:10:04.600 ,6,1,7.,12.0,0.,12.0,0.,12.0,27.,12.0
1979-03-04 12:10:16.600 ,5,1,11.,12.0,0.,12.0,0.,12.0,32.,12.0
1979-03-04 12:10:28.600 ,5,1,11.,12.0,0.,12.0,0.,12.0,38.,12.0
1979-03-04 12:10:40.600 ,4,1,13.,12.0,0.,12.0,0.,12.0,39.,12.0
1979-03-04 12:10:52.600 ,4,1,4.,12.0,0.,12.0,0.,12.0,22.,12.0
1979-03-04 12:11:04.600 ,3,1,10.,12.0,0.,12.0,0.,12.0,19.,12.0
1979-03-04 12:11:16.600 ,3,1,6.,12.0,0.,12.0,0.,12.0,9.,12.0
1979-03-04 12:11:28.600 ,2,1,2.,12.0,0.,12.0,0.,12.0,18.,12.0
1979-03-04 12:11:40.600 ,2,1,7.,12.0,0.,12.0,0.,12.0,8.,12.0
1979-03-04 12:11:52.600 ,1,1,3.,12.0,0.,12.0,0.,12.0,6.,12.0
1979-03-04 12:12:04.600 ,1,1,2.,12.0,0.,12.0,0.,12.0,10.,12.0
1979-03-04 12:12:16.600 ,0,1,5.,12.0,0.,12.0,0.,12.0,5.,12.0
1979-03-04 12:12:28.600 ,0,1,4.,12.0,0.,12.0,0.,12.0,10.,12.0
1979-03-04 12:12:40.600 ,0,1,4.,12.0,0.,12.0,0.,12.0,14.,12.0
1979-03-04 12:12:52.600 ,0,1,2.,12.0,0.,12.0,0.,12.0,16.,12.0
1979-03-04 12:13:04.600 ,1,1,7.,12.0,0.,12.0,0.,12.0,8.,12.0
1979-03-04 12:13:16.600 ,1,1,9.,12.0,0.,12.0,0.,12.0,10.,12.0
1979-03-04 12:13:28.600 ,2,1,3.,12.0,0.,12.0,0.,12.0,6.,12.0
1979-03-04 12:13:40.600 ,2,1,5.,12.0,0.,12.0,0.,12.0,12.,12.0
1979-03-04 12:13:52.600 ,3,1,4.,12.0,0.,12.0,0.,12.0,9.,12.0
1979-03-04 12:14:04.600 ,3,1,3.,12.0,0.,12.0,0.,12.0,12.,12.0
1979-03-04 12:14:16.600 ,4,1,7.,12.0,0.,12.0,0.,12.0,13.,12.0
1979-03-04 12:14:28.600 ,4,1,16.,12.0,0.,12.0,0.,12.0,19.,12.0
1979-03-04 12:14:40.600 ,5,1,10.,12.0,0.,12.0,0.,12.0,24.,12.0
1979-03-04 12:14:52.600 ,5,1,16.,12.0,0.,12.0,0.,12.0,55.,12.0
1979-03-04 12:15:04.600 ,6,1,13.,12.0,0.,12.0,0.,12.0,42.,12.0
1979-03-04 12:15:16.600 ,6,1,12.,12.0,0.,12.0,0.,12.0,39.,12.0
1979-03-04 12:15:28.600 ,7,1,15.,12.0,0.,12.0,0.,12.0,47.,12.0
1979-03-04 12:15:40.600 ,7,1,1.,12.0,0.,12.0,0.,12.0,6.,12.0
1979-03-04 12:15:52.600 ,7,1,0.,12.0,0.,12.0,0.,12.0,0.,12.0
1979-03-04 12:16:04.600 ,7,1,0.,12.0,0.,12.0,0.,12.0,0.,12.0
1979-03-04 12:16:16.600 ,6,1,0.,12.0,0.,12.0,0.,12.0,0.,12.0
1979-03-04 12:16:28.600 ,6,1,8.,12.0,0.,12.0,0.,12.0,37.,12.0
1979-03-04 12:16:40.600 ,5,1,17.,12.0,0.,12.0,0.,12.0,42.,12.0
1979-03-04 12:16:52.600 ,5,1,9.,12.0,0.,12.0,0.,12.0,36.,12.0
1979-03-04 12:17:04.600 ,4,1,13.,12.0,0.,12.0,0.,12.0,44.,12.0
1979-03-04 12:17:16.600 ,4,1,9.,12.0,0.,12.0,0.,12.0,32.,12.0
1979-03-04 12:17:28.600 ,3,1,9.,12.0,0.,12.0,0.,12.0,20.,12.0
1979-03-04 12:17:40.600 ,3,1,6.,12.0,0.,12.0,0.,12.0,14.,12.0
1979-03-04 12:17:52.600 ,2,1,6.,12.0,0.,12.0,0.,12.0,15.,12.0
1979-03-04 12:18:04.600 ,2,1,6.,12.0,0.,12.0,0.,12.0,11.,12.0
1979-03-04 12:18:16.600 ,1,1,4.,12.0,0.,12.0,0.,12.0,12.,12.0
1979-03-04 12:18:28.600 ,1,1,3.,12.0,0.,12.0,0.,12.0,15.,12.0
1979-03-04 12:18:40.600 ,0,1,2.,12.0,0.,12.0,0.,12.0,7.,12.0
1979-03-04 12:18:52.600 ,0,1,6.,12.0,0.,12.0,0.,12.0,17.,12.0
1979-03-04 12:19:04.600 ,0,1,5.,12.0,0.,12.0,0.,12.0,22.,12.0
1979-03-04 12:19:16.600 ,0,1,7.,12.0,0.,12.0,0.,12.0,14.,12.0
1979-03-04 12:19:28.600 ,1,1,6.,12.0,0.,12.0,0.,12.0,10.,12.0
1979-03-04 12:19:40.600 ,1,1,5.,12.0,0.,12.0,0.,12.0,12.,12.0
1979-03-04 12:19:52.600 ,2,1,5.,12.0,0.,12.0,0.,12.0,11.,12.0
1979-03-04 12:20:04.600 ,2,1,3.,12.0,0.,12.0,0.,12.0,11.,12.0
1979-03-04 12:20:16.600 ,3,1,6.,12.0,0.,12.0,0.,12.0,10.,12.0
1979-03-04 12:20:28.600 ,3,1,3.,12.0,0.,12.0,0.,12.0,13.,12.0
1979-03-04 12:20:40.600 ,4,1,3.,12.0,0.,12.0,0.,12.0,19.,12.0
1979-03-04 12:20:52.600 ,4,1,8.,12.0,0.,12.0,0.,12.0,24.,12.0
1979-03-04 12:21:04.600 ,5,1,12.,12.0,0.,12.0,0.,12.0,23.,12.0
1979-03-04 12:21:16.600 ,5,1,9.,12.0,0.,12.0,0.,12.0,39.,12.0
1979-03-04 12:21:28.600 ,6,1,18.,12.0,0.,12.0,0.,12.0,53.,12.0
1979-03-04 12:21:40.600 ,6,1,17.,12.0,0.,12.0,0.,12.0,63.,12.0
1979-03-04 12:21:52.600 ,7,1,16.,12.0,0.,12.0,0.,12.0,55.,12.0
1979-03-04 12:22:04.600 ,7,1,1.,12.0,0.,12.0,0.,12.0,8.,12.0
1979-03-04 12:22:16.600 ,7,1,0.,12.0,0.,12.0,0.,12.0,0.,12.0
1979-03-04 12:22:28.600 ,7,1,0.,12.0,0.,12.0,0.,12.0,0.,12.0
1979-03-04 12:22:40.600 ,6,1,0.,12.0,0.,12.0,0.,12.0,0.,12.0
1979-03-04 12:22:52.600 ,6,1,15.,12.0,0.,12.0,0.,12.0,42.,12.0
1979-03-04 12:23:04.600 ,5,1,24.,12.0,0.,12.0,0.,12.0,47.,12.0
1979-03-04 12:23:16.600 ,5,1,20.,12.0,0.,12.0,0.,12.0,45.,12.0
1979-03-04 12:23:28.600 ,4,1,21.,12.0,0.,12.0,0.,12.0,49.,12.0
1979-03-04 12:23:40.600 ,4,1,9.,12.0,0.,12.0,0.,12.0,35.,12.0
1979-03-04 12:23:52.600 ,3,1,9.,12.0,0.,12.0,0.,12.0,25.,12.0
1979-03-04 12:24:04.600 ,3,1,5.,12.0,0.,12.0,0.,12.0,15.,12.0
1979-03-04 12:24:16.600 ,2,1,8.,12.0,0.,12.0,0.,12.0,27.,12.0
1979-03-04 12:24:28.600 ,2,1,2.,12.0,0.,12.0,0.,12.0,6.,12.0
1979-03-04 12:24:40.600 ,1,1,6.,12.0,0.,12.0,0.,12.0,10.,12.0
1979-03-04 12:24:52.600 ,1,1,1.,12.0,0.,12.0,0.,12.0,16.,12.0
1979-03-04 12:25:04.600 ,0,1,2.,12.0,0.,12.0,0.,12.0,11.,12.0
1979-03-04 12:25:16.600 ,0,1,4.,12.0,0.,12.0,0.,12.0,25.,12.0
1979-03-04 12:25:28.600 ,0,1,4.,12.0,0.,12.0,0.,12.0,17.,12.0
1979-03-04 12:25:40.600 ,0,1,9.,12.0,0.,12.0,0.,12.0,23.,12.0
1979-03-04 12:25:52.600 ,1,1,11.,12.0,0.,12.0,0.,12.0,28.,12.0
1979-03-04 12:26:04.600 ,1,1,3.,12.0,0.,12.0,0.,12.0,17.,12.0
1979-03-04 12:26:16.600 ,2,1,6.,12.0,0.,12.0,0.,12.0,9.,12.0
1979-03-04 12:26:28.600 ,2,1,8.,12.0,0.,12.0,0.,12.0,9.,12.0
1979-03-04 12:26:40.600 ,3,1,4.,12.0,0.,12.0,0.,12.0,9.,12.0
1979-03-04 12:26:52.600 ,3,1,8.,12.0,0.,12.0,0.,12.0,17.,12.0
1979-03-04 12:27:04.600 ,4,1,12.,12.0,0.,12.0,0.,12.0,20.,12.0
1979-03-04 12:27:16.600 ,4,1,6.,12.0,0.,12.0,0.,12.0,30.,12.0
1979-03-04 12:27:28.600 ,5,1,12.,12.0,0.,12.0,0.,12.0,42.,12.0
1979-03-04 12:27:40.600 ,5,1,19.,12.0,0.,12.0,0.,12.0,66.,12.0
1979-03-04 12:27:52.600 ,6,1,19.,12.0,0.,12.0,0.,12.0,70.,12.0
1979-03-04 12:28:04.600 ,6,1,21.,12.0,1.,12.0,0.,12.0,80.,12.0
1979-03-04 12:28:16.600 ,7,1,23.,12.0,0.,12.0,0.,12.0,58.,12.0
1979-03-04 12:28:28.600 ,7,1,5.,12.0,0.,12.0,0.,12.0,7.,12.0
1979-03-04 12:28:40.600 ,7,1,0.,12.0,0.,12.0,0.,12.0,0.,12.0
1979-03-04 12:28:52.600 ,7,1,0.,12.0,0.,12.0,0.,12.0,0.,12.0
1979-03-04 12:29:04.600 ,6,1,0.,12.0,0.,12.0,0.,12.0,0.,12.0
1979-03-04 12:29:16.600 ,6,1,17.,12.0,0.,12.0,0.,12.0,48.,12.0
1979-03-04 12:29:28.600 ,5,1,29.,12.0,0.,12.0,0.,12.0,62.,12.0
1979-03-04 12:29:40.600 ,5,1,39.,12.0,0.,12.0,0.,12.0,66.,12.0
1979-03-04 12:29:52.600 ,4,1,21.,12.0,0.,12.0,0.,12.0,60.,12.0
1979-03-04 12:30:04.600 ,4,1,15.,12.0,0.,12.0,0.,12.0,41.,12.0
1979-03-04 12:30:16.600 ,3,1,13.,12.0,0.,12.0,0.,12.0,29.,12.0
1979-03-04 12:30:28.600 ,3,1,9.,12.0,0.,12.0,0.,12.0,21.,12.0
1979-03-04 12:30:40.600 ,2,1,2.,12.0,0.,12.0,0.,12.0,18.,12.0
1979-03-04 12:30:52.600 ,2,1,7.,12.0,0.,12.0,0.,12.0,17.,12.0
1979-03-04 12:31:04.600 ,1,1,3.,12.0,0.,12.0,0.,12.0,16.,12.0
1979-03-04 12:31:16.600 ,1,1,9.,12.0,0.,12.0,0.,12.0,22.,12.0
1979-03-04 12:31:28.600 ,0,1,7.,12.0,0.,12.0,0.,12.0,20.,12.0
1979-03-04 12:31:40.600 ,0,1,10.,12.0,0.,12.0,0.,12.0,30.,12.0
1979-03-04 12:31:52.600 ,0,1,9.,12.0,0.,12.0,0.,12.0,29.,12.0
1979-03-04 12:32:04.600 ,0,1,9.,12.0,0.,12.0,0.,12.0,34.,12.0
1979-03-04 12:32:16.600 ,1,1,14.,12.0,0.,12.0,0.,12.0,36.,12.0
1979-03-04 12:32:28.600 ,1,1,5.,12.0,1.,12.0,0.,12.0,22.,12.0
1979-03-04 12:33:28.600 ,0,0,11.,12.0,0.,12.0,0.,12.0,23.,12.0
1979-03-04 12:33:40.600 ,0,0,15.,12.0,0.,12.0,0.,12.0,41.,12.0
1979-03-04 12:33:52.600 ,5,1,12.,12.0,0.,12.0,0.,12.0,56.,12.0
1979-03-04 12:34:04.600 ,5,1,26.,12.0,0.,12.0,0.,12.0,55.,12.0
1979-03-04 12:34:16.600 ,6,1,18.,12.0,0.,12.0,0.,12.0,72.,12.0
1979-03-04 12:34:28.600 ,6,1,21.,12.0,0.,12.0,0.,12.0,72.,12.0
1979-03-04 12:34:40.600 ,7,1,30.,12.0,0.,12.0,0.,12.0,64.,12.0
1979-03-04 12:34:52.600 ,7,1,3.,12.0,0.,12.0,0.,12.0,11.,12.0
1979-03-04 12:35:04.600 ,7,1,0.,12.0,0.,12.0,0.,12.0,0.,12.0
1979-03-04 12:35:16.600 ,7,1,0.,12.0,0.,12.0,0.,12.0,0.,12.0
1979-03-04 12:35:28.600 ,6,1,0.,12.0,0.,12.0,0.,12.0,0.,12.0
1979-03-04 12:35:40.600 ,6,1,23.,12.0,0.,12.0,0.,12.0,64.,12.0
1979-03-04 12:35:52.600 ,5,1,29.,12.0,0.,12.0,0.,12.0,72.,12.0
1979-03-04 12:36:04.600 ,5,1,22.,12.0,0.,12.0,0.,12.0,74.,12.0
1979-03-04 12:36:16.600 ,4,1,34.,12.0,0.,12.0,0.,12.0,86.,12.0
1979-03-04 12:36:28.600 ,4,1,19.,12.0,0.,12.0,0.,12.0,66.,12.0
1979-03-04 12:36:40.600 ,3,1,13.,12.0,0.,12.0,0.,12.0,54.,12.0
1979-03-04 12:36:52.600 ,3,1,8.,12.0,0.,12.0,0.,12.0,41.,12.0
1979-03-04 12:37:04.600 ,2,1,7.,12.0,0.,12.0,0.,12.0,33.,12.0
1979-03-04 12:37:16.600 ,2,1,7.,12.0,0.,12.0,0.,12.0,33.,12.0
1979-03-04 12:37:28.600 ,2,0,5.,12.0,0.,12.0,0.,12.0,28.,12.0
1979-03-04 12:37:40.600 ,2,0,,0,,0,,0,,0
1979-03-04 12:37:52.600 ,0,1,8.,12.0,0.,12.0,0.,12.0,34.,12.0
1979-03-04 12:38:04.600 ,0,1,16.,12.0,0.,12.0,0.,12.0,39.,12.0
1979-03-04 12:38:16.600 ,0,1,12.,12.0,0.,12.0,0.,12.0,45.,12.0
1979-03-04 12:38:28.600 ,0,1,15.,12.0,0.,12.0,0.,12.0,37.,12.0
1979-03-04 12:38:40.600 ,1,1,17.,12.0,0.,12.0,0.,12.0,50.,12.0
1979-03-04 12:38:52.600 ,1,1,10.,12.0,0.,12.0,0.,12.0,32.,12.0
1979-03-04 12:39:04.600 ,2,1,14.,12.0,0.,12.0,0.,12.0,29.,12.0
1979-03-04 12:39:16.600 ,2,1,10.,12.0,0.,12.0,0.,12.0,31.,12.0
1979-03-04 12:39:28.600 ,3,1,11.,12.0,0.,12.0,0.,12.0,26.,12.0
1979-03-04 12:39:40.600 ,3,1,10.,12.0,0.,12.0,0.,12.0,33.,12.0
1979-03-04 12:39:52.600 ,4,1,16.,12.0,0.,12.0,0.,12.0,35.,12.0
1979-03-04 12:40:04.600 ,4,1,17.,12.0,0.,12.0,0.,12.0,50.,12.0
1979-03-04 12:40:16.600 ,5,1,33.,12.0,0.,12.0,0.,12.0,74.,12.0
1979-03-04 12:40:28.600 ,5,1,28.,12.0,0.,12.0,0.,12.0,92.,12.0
1979-03-04 12:40:40.600 ,6,1,30.,12.0,0.,12.0,0.,12.0,90.,12.0
1979-03-04 12:40:52.600 ,6,1,43.,12.0,0.,12.0,0.,12.0,102.,12.0
1979-03-04 12:41:04.600 ,7,1,37.,12.0,0.,12.0,0.,12.0,98.,12.0
1979-03-04 12:41:16.600 ,7,1,4.,12.0,0.,12.0,0.,12.0,15.,12.0
1979-03-04 12:41:28.600 ,7,1,0.,12.0,0.,12.0,0.,12.0,0.,12.0
1979-03-04 12:41:40.600 ,7,1,0.,12.0,0.,12.0,0.,12.0,0.,12.0
1979-03-04 12:41:52.600 ,6,1,0.,12.0,0.,12.0,0.,12.0,0.,12.0
1979-03-04 12:42:04.600 ,6,1,38.,12.0,0.,12.0,0.,12.0,94.,12.0
1979-03-04 12:42:16.600 ,5,1,42.,12.0,0.,12.0,0.,12.0,86.,12.0
1979-03-04 12:42:28.600 ,5,1,44.,12.0,0.,12.0,0.,12.0,88.,12.0
1979-03-04 12:42:40.600 ,4,1,38.,12.0,0.,12.0,0.,12.0,106.,12.0
1979-03-04 12:42:52.600 ,4,1,35.,12.0,0.,12.0,0.,12.0,74.,12.0
1979-03-04 12:43:04.600 ,3,1,27.,12.0,0.,12.0,0.,12.0,74.,12.0
1979-03-04 12:43:16.600 ,3,1,12.,12.0,0.,12.0,0.,12.0,43.,12.0
1979-03-04 12:43:28.600 ,2,1,19.,12.0,0.,12.0,0.,12.0,54.,12.0
1979-03-04 12:43:40.600 ,2,1,17.,12.0,0.,12.0,0.,12.0,39.,12.0
1979-03-04 12:43:52.600 ,1,1,16.,12.0,0.,12.0,0.,12.0,35.,12.0
1979-03-04 12:44:04.600 ,1,1,17.,12.0,0.,12.0,0.,12.0,43.,12.0
1979-03-04 12:44:16.600 ,0,1,12.,12.0,0.,12.0,0.,12.0,37.,12.0
1979-03-04 12:44:28.600 ,0,1,10.,12.0,0.,12.0,0.,12.0,40.,12.0
1979-03-04 12:44:40.600 ,0,1,15.,12.0,0.,12.0,0.,12.0,52.,12.0
1979-03-04 12:44:52.600 ,0,1,25.,12.0,0.,12.0,0.,12.0,47.,12.0
1979-03-04 12:45:04.600 ,1,1,21.,12.0,0.,12.0,0.,12.0,52.,12.0
1979-03-04 12:45:16.600 ,1,1,15.,12.0,0.,12.0,0.,12.0,54.,12.0
1979-03-04 12:45:28.600 ,2,1,19.,12.0,0.,12.0,0.,12.0,35.,12.0
1979-03-04 12:45:40.600 ,2,1,12.,12.0,0.,12.0,0.,12.0,34.,12.0
1979-03-04 12:45:52.600 ,3,1,10.,12.0,0.,12.0,0.,12.0,38.,12.0
1979-03-04 12:46:04.600 ,3,1,17.,12.0,0.,12.0,0.,12.0,47.,12.0
1979-03-04 12:46:16.600 ,4,1,19.,12.0,0.,12.0,0.,12.0,66.,12.0
1979-03-04 12:46:28.600 ,4,1,30.,12.0,1.,12.0,0.,12.0,62.,12.0
1979-03-04 12:46:40.600 ,5,1,27.,12.0,0.,12.0,0.,12.0,78.,12.0
1979-03-04 12:46:52.600 ,5,1,43.,12.0,0.,12.0,0.,12.0,114.,12.0
1979-03-04 12:47:04.600 ,6,1,42.,12.0,0.,12.0,0.,12.0,100.,12.0
1979-03-04 12:47:16.600 ,6,1,42.,12.0,0.,12.0,0.,12.0,108.,12.0
1979-03-04 12:47:28.600 ,7,1,48.,12.0,0.,12.0,0.,12.0,122.,12.0
1979-03-04 12:47:40.600 ,7,1,5.,12.0,0.,12.0,0.,12.0,12.,12.0
1979-03-04 12:47:52.600 ,7,1,0.,12.0,0.,12.0,0.,12.0,0.,12.0
1979-03-04 12:48:04.600 ,7,1,0.,12.0,0.,12.0,0.,12.0,0.,12.0
1979-03-04 12:48:16.600 ,6,1,0.,12.0,0.,12.0,0.,12.0,0.,12.0
1979-03-04 12:48:28.600 ,6,1,46.,12.0,0.,12.0,0.,12.0,122.,12.0
1979-03-04 12:48:40.600 ,5,1,48.,12.0,0.,12.0,0.,12.0,132.,12.0
1979-03-04 12:48:52.600 ,5,1,45.,12.0,1.,12.0,0.,12.0,120.,12.0
1979-03-04 12:49:04.600 ,4,1,58.,12.0,0.,12.0,0.,12.0,110.,12.0
1979-03-04 12:49:16.600 ,4,1,34.,12.0,0.,12.0,0.,12.0,76.,12.0
1979-03-04 12:49:28.600 ,3,1,28.,12.0,0.,12.0,0.,12.0,70.,12.0
1979-03-04 12:49:40.600 ,3,1,20.,12.0,0.,12.0,0.,12.0,47.,12.0
1979-03-04 12:49:52.600 ,2,1,20.,12.0,0.,12.0,0.,12.0,57.,12.0
1979-03-04 12:50:04.600 ,2,1,19.,12.0,0.,12.0,0.,12.0,37.,12.0
1979-03-04 12:50:16.600 ,1,1,15.,12.0,0.,12.0,0.,12.0,33.,12.0
1979-03-04 12:50:28.600 ,1,1,16.,12.0,0.,12.0,0.,12.0,53.,12.0
1979-03-04 12:50:40.600 ,0,1,20.,12.0,0.,12.0,0.,12.0,41.,12.0
1979-03-04 12:50:52.600 ,0,1,23.,12.0,0.,12.0,0.,12.0,60.,12.0
1979-03-04 12:51:04.600 ,0,1,33.,12.0,0.,12.0,0.,12.0,63.,12.0
1979-03-04 12:51:16.600 ,0,1,23.,12.0,0.,12.0,0.,12.0,68.,12.0
1979-03-04 12:51:28.600 ,1,1,21.,12.0,0.,12.0,0.,12.0,62.,12.0
1979-03-04 12:51:40.600 ,1,1,23.,12.0,0.,12.0,0.,12.0,48.,12.0
1979-03-04 12:51:52.600 ,2,1,19.,12.0,0.,12.0,0.,12.0,60.,12.0
1979-03-04 12:52:04.600 ,2,1,13.,12.0,0.,12.0,0.,12.0,51.,12.0
1979-03-04 12:52:16.600 ,3,1,28.,12.0,0.,12.0,0.,12.0,54.,12.0
1979-03-04 12:52:28.600 ,3,1,21.,12.0,0.,12.0,0.,12.0,51.,12.0
1979-03-04 12:52:40.600 ,4,1,23.,12.0,0.,12.0,0.,12.0,62.,12.0
1979-03-04 12:52:52.600 ,4,1,39.,12.0,0.,12.0,0.,12.0,102.,12.0
1979-03-04 12:53:04.600 ,5,1,40.,12.0,0.,12.0,0.,12.0,108.,12.0
1979-03-04 12:53:16.600 ,5,1,48.,12.0,0.,12.0,0.,12.0,126.,12.0
1979-03-04 12:53:28.600 ,6,1,44.,12.0,0.,12.0,0.,12.0,126.,12.0
1979-03-04 12:53:40.600 ,6,1,57.,12.0,0.,12.0,0.,12.0,116.,12.0
1979-03-04 12:53:52.600 ,7,1,58.,12.0,0.,12.0,0.,12.0,136.,12.0
1979-03-04 12:54:04.600 ,7,1,9.,12.0,0.,12.0,0.,12.0,17.,12.0
1979-03-04 12:54:16.600 ,7,1,0.,12.0,0.,12.0,0.,12.0,0.,12.0
1979-03-04 12:54:28.600 ,7,1,0.,12.0,0.,12.0,0.,12.0,0.,12.0
1979-03-04 12:54:40.600 ,6,1,0.,12.0,0.,12.0,0.,12.0,0.,12.0
1979-03-04 12:54:52.600 ,6,1,56.,12.0,0.,12.0,0.,12.0,118.,12.0
1979-03-04 12:55:04.600 ,5,1,70.,12.0,0.,12.0,0.,12.0,120.,12.0
1979-03-04 12:55:16.600 ,5,1,53.,12.0,1.,12.0,0.,12.0,128.,12.0
1979-03-04 12:55:28.600 ,4,1,58.,12.0,0.,12.0,0.,12.0,110.,12.0
1979-03-04 12:55:40.600 ,4,1,37.,12.0,0.,12.0,0.,12.0,98.,12.0
1979-03-04 12:55:52.600 ,3,1,55.,12.0,0.,12.0,0.,12.0,98.,12.0
1979-03-04 12:56:04.600 ,3,1,32.,12.0,0.,12.0,0.,12.0,78.,12.0
1979-03-04 12:56:16.600 ,2,1,25.,12.0,0.,12.0,0.,12.0,70.,12.0
1979-03-04 12:56:28.600 ,2,1,16.,12.0,0.,12.0,0.,12.0,41.,12.0
1979-03-04 12:56:40.600 ,1,1,25.,12.0,0.,12.0,0.,12.0,59.,12.0
1979-03-04 12:56:52.600 ,1,1,19.,12.0,0.,12.0,0.,12.0,55.,12.0
1979-03-04 12:57:04.600 ,0,1,22.,12.0,0.,12.0,0.,12.0,66.,12.0
1979-03-04 12:57:16.600 ,0,1,38.,12.0,0.,12.0,0.,12.0,78.,12.0
1979-03-04 12:57:28.600 ,0,1,36.,12.0,0.,12.0,0.,12.0,64.,12.0
1979-03-04 12:57:40.600 ,0,1,34.,12.0,0.,12.0,0.,12.0,80.,12.0
1979-03-04 12:57:52.600 ,1,1,37.,12.0,0.,12.0,0.,12.0,80.,12.0
1979-03-04 12:58:04.600 ,1,1,17.,12.0,0.,12.0,0.,12.0,74.,12.0
1979-03-04 12:58:16.600 ,2,1,22.,12.0,0.,12.0,0.,12.0,68.,12.0
1979-03-04 12:58:28.600 ,2,1,22.,12.0,0.,12.0,0.,12.0,53.,12.0
1979-03-04 12:58:40.600 ,3,1,30.,12.0,0.,12.0,0.,12.0,64.,12.0
1979-03-04 12:58:52.600 ,3,1,21.,12.0,0.,12.0,0.,12.0,63.,12.0
1979-03-04 12:59:04.600 ,4,1,31.,12.0,0.,12.0,0.,12.0,68.,12.0
1979-03-04 12:59:16.600 ,4,1,48.,12.0,0.,12.0,0.,12.0,84.,12.0
1979-03-04 12:59:28.600 ,5,1,51.,12.0,0.,12.0,0.,12.0,84.,12.0
1979-03-04 12:59:40.600 ,5,1,59.,12.0,0.,12.0,0.,12.0,136.,12.0
1979-03-04 12:59:52.600 ,6,1,64.,12.0,0.,12.0,0.,12.0,140.,12.0
1979-03-04 13:00:04.600 ,6,1,61.,12.0,0.,12.0,0.,12.0,132.,12.0
1979-03-04 13:00:16.600 ,7,1,84.,12.0,0.,12.0,0.,12.0,136.,12.0
1979-03-04 13:00:28.600 ,7,1,3.,12.0,0.,12.0,0.,12.0,8.,12.0
1979-03-04 13:00:40.600 ,7,1,0.,12.0,0.,12.0,0.,12.0,0.,12.0
1979-03-04 13:00:52.600 ,7,1,0.,12.0,0.,12.0,0.,12.0,0.,12.0
1979-03-04 13:01:04.600 ,6,1,0.,12.0,0.,12.0,0.,12.0,0.,12.0
1979-03-04 13:01:16.600 ,6,1,58.,12.0,0.,12.0,0.,12.0,140.,12.0
1979-03-04 13:01:28.600 ,5,1,68.,12.0,0.,12.0,0.,12.0,144.,12.0
1979-03-04 13:01:40.600 ,5,1,60.,12.0,0.,12.0,0.,12.0,126.,12.0
1979-03-04 13:01:52.600 ,4,1,45.,12.0,0.,12.0,0.,12.0,132.,12.0
1979-03-04 13:02:04.600 ,4,1,49.,12.0,0.,12.0,0.,12.0,96.,12.0
1979-03-04 13:02:16.600 ,3,1,46.,12.0,0.,12.0,0.,12.0,102.,12.0
1979-03-04 13:02:28.600 ,3,1,51.,12.0,0.,12.0,0.,12.0,82.,12.0
1979-03-04 13:02:40.600 ,2,1,35.,12.0,0.,12.0,0.,12.0,106.,12.0
1979-03-04 13:02:52.600 ,2,1,30.,12.0,0.,12.0,0.,12.0,72.,12.0
1979-03-04 13:03:04.600 ,1,1,36.,12.0,0.,12.0,0.,12.0,60.,12.0
1979-03-04 13:03:16.600 ,1,1,31.,12.0,0.,12.0,0.,12.0,66.,12.0
1979-03-04 13:03:28.600 ,0,1,31.,12.0,0.,12.0,0.,12.0,68.,12.0
1979-03-04 13:03:40.600 ,0,1,36.,12.0,0.,12.0,0.,12.0,68.,12.0
1979-03-04 13:03:52.600 ,0,1,39.,12.0,0.,12.0,0.,12.0,88.,12.0
1979-03-04 13:04:04.600 ,0,1,47.,12.0,0.,12.0,0.,12.0,90.,12.0
1979-03-04 13:04:16.600 ,1,1,44.,12.0,0.,12.0,0.,12.0,84.,12.0
1979-03-04 13:04:28.600 ,1,1,28.,12.0,0.,12.0,0.,12.0,63.,12.0
1979-03-04 13:04:40.600 ,2,1,25.,12.0,0.,12.0,0.,12.0,68.,12.0
1979-03-04 13:04:52.600 ,2,1,44.,12.0,0.,12.0,0.,12.0,63.,12.0
1979-03-04 13:05:04.600 ,3,1,35.,12.0,0.,12.0,0.,12.0,55.,12.0
1979-03-04 13:05:16.600 ,3,1,33.,12.0,0.,12.0,0.,12.0,92.,12.0
1979-03-04 13:05:28.600 ,4,1,31.,12.0,0.,12.0,0.,12.0,82.,12.0
1979-03-04 13:05:40.600 ,4,1,56.,12.0,0.,12.0,0.,12.0,110.,12.0
1979-03-04 13:05:52.600 ,5,1,53.,12.0,0.,12.0,0.,12.0,120.,12.0
1979-03-04 13:06:04.600 ,5,1,78.,12.0,0.,12.0,0.,12.0,148.,12.0
1979-03-04 13:06:16.600 ,6,1,76.,12.0,0.,12.0,0.,12.0,144.,12.0
1979-03-04 13:06:28.600 ,6,1,64.,12.0,0.,12.0,0.,12.0,144.,12.0
1979-03-04 13:06:40.600 ,7,1,82.,12.0,0.,12.0,0.,12.0,156.,12.0
1979-03-04 13:06:52.600 ,7,1,9.,12.0,0.,12.0,0.,12.0,17.,12.0
1979-03-04 13:07:04.600 ,7,1,0.,12.0,0.,12.0,0.,12.0,0.,12.0
1979-03-04 13:07:16.600 ,7,1,0.,12.0,0.,12.0,0.,12.0,0.,12.0
1979-03-04 13:07:28.600 ,6,1,0.,12.0,0.,12.0,0.,12.0,0.,12.0
1979-03-04 13:07:40.600 ,6,1,58.,12.0,0.,12.0,0.,12.0,132.,12.0
1979-03-04 13:07:52.600 ,5,1,66.,12.0,0.,12.0,0.,12.0,126.,12.0
1979-03-04 13:08:04.600 ,5,1,74.,12.0,0.,12.0,0.,12.0,148.,12.0
1979-03-04 13:08:16.600 ,4,1,84.,12.0,0.,12.0,0.,12.0,124.,12.0
1979-03-04 13:08:28.600 ,4,1,66.,12.0,0.,12.0,0.,12.0,102.,12.0
1979-03-04 13:08:40.600 ,3,1,70.,12.0,0.,12.0,0.,12.0,106.,12.0
1979-03-04 13:08:52.600 ,3,1,63.,12.0,0.,12.0,0.,12.0,86.,12.0
1979-03-04 13:09:04.600 ,2,1,41.,12.0,0.,12.0,0.,12.0,70.,12.0
1979-03-04 13:09:16.600 ,2,1,24.,12.0,0.,12.0,0.,12.0,54.,12.0
1979-03-04 13:09:28.600 ,1,1,22.,12.0,0.,12.0,0.,12.0,80.,12.0
1979-03-04 13:09:40.610 ,1,1,29.,12.0,0.,12.0,0.,12.0,66.,12.0
1979-03-04 13:09:52.600 ,0,1,22.,12.0,0.,12.0,0.,12.0,88.,12.0
1979-03-04 13:10:04.610 ,0,1,40.,12.0,0.,12.0,0.,12.0,72.,12.0
1979-03-04 13:10:16.600 ,0,1,48.,12.0,0.,12.0,0.,12.0,78.,12.0
1979-03-04 13:10:28.610 ,0,1,35.,12.0,0.,12.0,0.,12.0,98.,12.0
1979-03-04 13:10:40.600 ,1,1,42.,12.0,0.,12.0,0.,12.0,80.,12.0
1979-03-04 13:10:52.610 ,1,1,35.,12.0,0.,12.0,0.,12.0,80.,12.0
1979-03-04 13:11:04.600 ,2,1,34.,12.0,0.,12.0,0.,12.0,80.,12.0
1979-03-04 13:11:16.610 ,2,1,28.,12.0,0.,12.0,0.,12.0,70.,12.0
1979-03-04 13:11:28.600 ,3,1,29.,12.0,0.,12.0,0.,12.0,72.,12.0
1979-03-04 13:11:40.610 ,3,1,42.,12.0,0.,12.0,0.,12.0,74.,12.0
1979-03-04 13:11:52.600 ,4,1,39.,12.0,0.,12.0,0.,12.0,86.,12.0
1979-03-04 13:12:04.610 ,4,1,70.,12.0,0.,12.0,0.,12.0,114.,12.0
1979-03-04 13:12:16.600 ,5,1,76.,12.0,0.,12.0,0.,12.0,128.,12.0
1979-03-04 13:12:28.610 ,5,1,92.,12.0,0.,12.0,0.,12.0,148.,12.0
1979-03-04 13:12:40.600 ,6,1,82.,12.0,0.,12.0,0.,12.0,172.,12.0
1979-03-04 13:12:52.610 ,6,1,90.,12.0,0.,12.0,0.,12.0,144.,12.0
1979-03-04 13:13:04.600 ,7,1,94.,12.0,0.,12.0,0.,12.0,148.,12.0
1979-03-04 13:13:16.610 ,7,1,18.,12.0,0.,12.0,0.,12.0,19.,12.0
1979-03-04 13:13:28.600 ,7,1,0.,12.0,0.,12.0,0.,12.0,0.,12.0
1979-03-04 13:13:40.610 ,7,1,0.,12.0,0.,12.0,0.,12.0,0.,12.0
1979-03-04 13:13:52.600 ,6,1,0.,12.0,0.,12.0,0.,12.0,0.,12.0
1979-03-04 13:14:04.610 ,6,1,68.,12.0,0.,12.0,0.,12.0,160.,12.0
1979-03-04 13:14:16.600 ,5,1,80.,12.0,0.,12.0,0.,12.0,168.,12.0
1979-03-04 13:14:28.610 ,5,1,82.,12.0,0.,12.0,0.,12.0,164.,12.0
1979-03-04 13:14:40.600 ,4,1,70.,12.0,0.,12.0,0.,12.0,152.,12.0
1979-03-04 13:14:52.610 ,4,1,72.,12.0,0.,12.0,0.,12.0,136.,12.0
1979-03-04 13:15:04.600 ,3,1,64.,12.0,0.,12.0,0.,12.0,128.,12.0
1979-03-04 13:15:16.610 ,3,1,52.,12.0,0.,12.0,0.,12.0,98.,12.0
1979-03-04 13:15:28.600 ,2,1,34.,12.0,0.,12.0,0.,12.0,92.,12.0
1979-03-04 13:15:40.610 ,2,1,33.,12.0,0.,12.0,0.,12.0,82.,12.0
1979-03-04 13:15:52.600 ,1,1,44.,12.0,0.,12.0,0.,12.0,74.,12.0
1979-03-04 13:16:04.610 ,1,1,33.,12.0,0.,12.0,0.,12.0,84.,12.0